Flag for Germany Weather past 2 weeks in Ingolstadt, Bavaria, Germany

Now
81 °F

Warm.


Feels Like: 81 °F
Forecast: 58 / 86 °F
Wind: 5 mph from East

Location: Ingolstadt Airport

Current Time: Aug 3, 2015 at 9:51:18 PM

Latest Report: Aug 3, 2015 at 8:20 PM


Visibility: N/A

Pressure: 30.04 "Hg

Humidity: 45%

Dew point: 57 °F

Location of IngolstadtLocation

Historic Weather in Ingolstadt — Graph

°F

Ingolstadt temperature yesterday

Maximum temperature yesterday: 81 °F (at 4:20 PM)
Minimum temperature yesterday: 59 °F (at 2:20 AM)
Average temperature yesterday: 69 °F

Past Weeks' High & Low Weather Summary

 TemperatureHumidityPressure
High97 °F (Jul 22, 4:20 PM)100% (Jul 30, 4:20 AM)30.12 "Hg (Jul 30, 4:20 AM)
Low46 °F (Jul 30, 4:20 AM)22% (Jul 22, 5:00 PM)29.71 "Hg (Jul 25, 12:20 AM)
Average69 °F59%29.95 "Hg
* Reported Jul 19 8:20 PM — Aug 3 8:20 PM, Ingolstadt, Weather by CustomWeather, © 2015

Note: Actual official high and low records may vary slightly from our data, if they occured in-between our weather recording intervals... More about our weather records

Advertising

Ingolstadt weather history for previous 24 hours

 ConditionsComfort  
Time TempWeatherWind HumidityBarometerVisibility
8:20 PM
Mon, Aug 3
81 °FWarm.5 mph45%30.04 "HgN/A
7:20 PM84 °FPassing clouds.5 mph37%30.04 "HgN/A
6:20 PM84 °FPassing clouds.3 mph35%30.04 "HgN/A
5:20 PM84 °FPassing clouds.5 mph33%30.04 "HgN/A
4:20 PM84 °FPassing clouds.5 mph37%30.07 "HgN/A
3:20 PM82 °FPassing clouds.6 mph40%30.07 "HgN/A
2:20 PM82 °FPassing clouds.5 mph40%30.09 "HgN/A
1:20 PM81 °FPassing clouds.5 mph39%30.09 "HgN/A
12:20 PM79 °FPassing clouds.6 mph45%30.09 "HgN/A
11:20 AM75 °FPassing clouds.6 mph50%30.12 "HgN/A
10:20 AM72 °FPassing clouds.5 mph61%30.12 "HgN/A
9:20 AM68 °FScattered clouds.5 mph69%30.12 "HgN/A
8:20 AM63 °FScattered clouds.5 mph83%30.12 "HgN/A
7:20 AM59 °FPassing clouds.5 mph88%30.12 "HgN/A
6:20 AM55 °FPassing clouds.1 mph94%30.12 "HgN/A
5:20 AM55 °FCool.3 mph94%30.09 "HgN/A
4:20 AM57 °FCool.3 mph88%30.09 "HgN/A
3:20 AM59 °FCool.3 mph82%30.09 "HgN/A
2:20 AM61 °FCool.5 mph77%30.09 "HgN/A
1:20 AM63 °FMild.5 mph73%30.09 "HgN/A
12:20 AM64 °FMild.2 mph68%30.12 "HgN/A
11:20 PM
Sun, Aug 2
66 °FMild.3 mph68%30.12 "HgN/A
10:20 PM68 °FMild.2 mph60%30.09 "HgN/A
9:20 PM70 °FMild.3 mph57%30.09 "HgN/A
Weather by CustomWeather, © 2015

See weather overviewHow to use our weather pages